weather.gov     
National Weather Service

Terminal Aerodrome Forecast
NWS Homepage
This page is being discontinued on March 12, 2014.
The same data is available at this site. Please update your bookmarks.
Thank you, and we apologize for the inconvenience.
Please send an email to SR-SRH.Webmaster@noaa.gov with any concerns.


Current Version
Previous Version:    01  02  03  04  05  06  07  08  09  10  11  12  13  14  15  16  17  18  19  20  21  22  23  24  25  26  27  
[Printable]
964
FTUS43 KDMX 021132
TAFFOD
TAF
KFOD 021132Z 0212/0312 VRB02KT P6SM OVC110
     FM021600 26008KT P6SM SCT100
     FM030200 17004KT P6SM SCT050
     FM031100 16007KT P6SM VCTS BKN030CB=




964
FTUS43 KDMX 021132
TAFFOD
TAF
KFOD 021132Z 0212/0312 VRB02KT P6SM OVC110
     FM021600 26008KT P6SM SCT100
     FM030200 17004KT P6SM SCT050
     FM031100 16007KT P6SM VCTS BKN030CB=


U.S. Dept. of Commerce
NOAA National Weather Service
1325 East West Highway
Silver Spring, MD 20910
E-mail: w-nws.webmaster@noaa.gov
Page last modified: May 16, 2007
NATIONAL WEATHER SERVICE: for Safety, for Work, for Fun - FOR LIFE